This is the latest recevied weather packets stored in our database for station/object Kozakov. If no packets are shown the sender has not sent any weather packets the latest 1 day(s).
| Time | Temp. | Humidity | Pressure | Rain* | Wind** | Luminosity | Snow |
|---|---|---|---|---|---|---|---|
| 1777965620 | 12.22° C | 71% | - | - | 3.13 m/s, 91° | - | - |
| 1777965317 | 12.78° C | 73% | - | - | 1.79 m/s, 93° | - | - |
| 1777965018 | 12.22° C | 71% | - | - | 1.79 m/s, 96° | - | - |
| 1777964718 | 12.22° C | 68% | - | - | 1.79 m/s, 90° | - | - |
| 1777964417 | 12.22° C | 66% | - | - | 1.79 m/s, 103° | - | - |
| 1777964111 | 12.22° C | 62% | - | - | 3.13 m/s, 107° | - | - |
| 1777963818 | 12.22° C | 60% | - | - | 1.79 m/s, 101° | - | - |
| 1777963523 | 12.22° C | 56% | - | - | 3.13 m/s, 101° | - | - |
| 1777963218 | 12.78° C | 56% | - | - | 1.79 m/s, 114° | - | - |
| 1777962918 | 12.22° C | 54% | - | - | 3.13 m/s, 107° | - | - |
| 1777962618 | 12.22° C | 54% | - | - | 4.02 m/s, 117° | - | - |
| 1777962317 | 12.22° C | 53% | - | - | 4.02 m/s, 118° | - | - |
| 1777962021 | 12.22° C | 54% | - | - | 3.13 m/s, 110° | - | - |
| 1777961711 | 12.22° C | 53% | - | - | 3.13 m/s, 116° | - | - |
| 1777961417 | 12.22° C | 52% | - | - | 4.02 m/s, 126° | - | - |
| 1777961117 | 12.22° C | 52% | - | - | 4.02 m/s, 122° | - | - |
| 1777960810 | 12.22° C | 51% | - | - | 4.92 m/s, 121° | - | - |
| 1777960517 | 12.22° C | 50% | - | - | 5.81 m/s, 125° | - | - |
| 1777960217 | 12.22° C | 51% | - | - | 4.02 m/s, 127° | - | - |
| 1777959917 | 12.22° C | 51% | - | - | 4.92 m/s, 124° | - | - |
| 1777959617 | 12.78° C | 51% | - | - | 5.81 m/s, 131° | - | - |
| 1777959310 | 12.22° C | 51% | - | - | 4.92 m/s, 130° | - | - |
| 1777959017 | 12.78° C | 51% | - | - | 5.81 m/s, 126° | - | - |
| 1777958710 | 12.78° C | 52% | - | - | 7.15 m/s, 126° | - | - |
| 1777958415 | 12.78° C | 52% | - | - | 7.15 m/s, 124° | - | - |
* Rain since midnight (hover to see other rain measurements)
** Current wind speed in m/s (hover to see current wind gust speed)